Location: Luxembourg
(49.6117°N, 6.1300°E)
Time: 16:04:57
(UTC+01:00)

N. Korean satellite - Visible Passes

Search period start: 20 November 2017 00:00
Search period end: 30 November 2017 00:00
Orbit: 460 x 514 km, 97.2° (Epoch: 20 November)

Date Brightness Start Highest point End Pass type
(mag) Time Alt. Az. Time Alt. Az. Time Alt. Az.
20 Nov 8.2 07:05:16 10° NNE 07:08:49 40° E 07:12:22 10° S visible
20 Nov 7.3 17:45:59 10° SE 17:49:04 30° ENE 17:52:14 10° N visible
20 Nov 9.1 19:19:49 10° SSW 19:22:38 22° W 19:25:31 10° NW visible
21 Nov 9.4 06:42:11 10° NE 06:45:13 23° E 06:48:16 10° SSE visible
21 Nov 8.0 17:23:20 10° ESE 17:25:47 18° ENE 17:28:15 10° NNE visible
21 Nov 7.9 18:55:41 10° S 18:59:01 40° W 19:02:27 10° NNW visible
22 Nov 10.0 06:19:37 10° ENE 06:21:33 13° E 06:23:28 10° ESE visible
22 Nov 6.6 18:31:57 10° S 18:35:29 79° WSW 18:39:06 10° NNW visible
23 Nov 6.6 18:08:34 10° SSE 18:12:01 54° ENE 18:15:34 10° N visible
23 Nov 9.9 19:44:13 10° WSW 19:45:55 13° W 19:47:38 10° WNW visible
24 Nov 8.2 07:04:51 10° NNE 07:08:26 41° E 07:12:00 10° S visible
24 Nov 7.3 17:45:30 10° SE 17:48:38 30° ENE 17:51:51 10° N visible
24 Nov 9.1 19:19:20 10° SSW 19:22:12 23° W 19:25:07 10° NW visible
25 Nov 9.4 06:41:45 10° NE 06:44:49 23° E 06:47:52 10° SSE visible
25 Nov 8.0 17:22:51 10° ESE 17:25:20 18° ENE 17:27:51 10° NNE visible
25 Nov 7.9 18:55:12 10° S 18:58:34 41° W 19:02:02 10° NNW visible
26 Nov 10.0 06:19:11 10° ENE 06:21:08 14° E 06:23:04 10° ESE visible
26 Nov 6.6 18:31:28 10° S 18:35:01 79° WSW 18:38:41 10° NNW visible
27 Nov 6.6 18:08:03 10° SSE 18:11:34 54° ENE 18:15:09 10° N visible
27 Nov 9.9 19:43:40 10° WSW 19:45:26 13° W 19:47:15 10° WNW visible
28 Nov 8.2 07:04:24 10° NNE 07:07:59 40° E 07:11:33 10° S visible
28 Nov 7.4 17:44:59 10° SE 17:48:09 30° ENE 17:51:25 10° N visible
28 Nov 9.0 19:18:49 10° SSW 19:21:43 23° W 19:24:41 10° NW visible
29 Nov 9.4 06:41:17 10° NE 06:44:22 23° E 06:47:25 10° SSE visible
29 Nov 8.0 17:22:19 10° ESE 17:24:51 18° ENE 17:27:24 10° NNE visible
29 Nov 7.9 18:54:39 10° S 18:58:05 41° W 19:01:35 10° NNW visible
